Regional Weather Roundup
Issued by NWS

Home | Current Version | Previous Version | Text Only | Print | Product List | Glossary On
Versions: 1 2 3 4 5 6 7 8 9 10 11 12 13 14 15 16 17 18 19 20 21 22 23 24 25 26 27 28 29 30 31 32 33 34 35 36 37 38 39 40 41 42 43 44 45 46 47 48 49 50
000
ASUS44 KEWX 140603
RWRTX
SOUTH TEXAS REGIONAL WEATHER ROUNDUP
NATIONAL WEATHER SERVICE AUSTIN/SAN ANTONIO TX
1200 AM CST SUN FEB 14 2016

NOTE: "FAIR" INDICATED FEW OR NO CLOUDS BELOW 12,000 FEET WITH NO
SIGNIFICANT WEATHER AND/OR OBSTRUCTIONS TO VISIBILITY.

* - THESE STATIONS ARE NOT NWS OR FAA STATIONS...AND ARE NOT SUBJECT
    TO NWS AND FAA QUALITY CONTROL.

TXZ171-172-183>190-140700-
TEXAS HILL COUNTRY AND EDWARDS PLATEAU

CITY           SKY/WX    TMP DP  RH WIND       PRES   REMARKS
JUNCTION       CLOUDY    53  44  71 CALM      30.09F
6HR MIN TEMP:  50; 6HR MAX TEMP:  72;

*LLANO         CLEAR     57  50  77 S6        30.14F
BURNET         CLEAR     57  50  77 S10G20    30.13F
6HR MIN TEMP:  57; 6HR MAX TEMP:  69;

*HORSESHOE BAY CLEAR     58  51  77 S5        30.13S
*KERRVILLE     CLEAR     56  52  87 SE12      30.12F
6HR MIN TEMP:  54; 6HR MAX TEMP:  69;

*FREDERICKSBRG CLEAR     55  49  79 S9        30.12F
*ROCKSPRINGS   CLOUDY    55  48  76 SE15G22   30.12F
*BOERNE STAGE  CLEAR     54  50  87 S8        30.14F
*CASTROVILLE   CLEAR     57  49  75 SE6       30.15F
HONDO          CLEAR     57  50  77 SE12      30.14F
6HR MIN TEMP:  57; 6HR MAX TEMP:  71;

*UVALDE        CLEAR     56  49  78 SE7       30.12F
6HR MIN TEMP:  56; 6HR MAX TEMP:  73;

DEL RIO        CLEAR     60  46  59 SE12      30.06F
6HR MIN TEMP:  58; 6HR MAX TEMP:  75;

LAUGHLIN AFB   CLEAR     59  47  63 SE12      30.06F
6HR MIN TEMP:  59; 6HR MAX TEMP:  73;

CARRIZO SPRGS  CLEAR     61  52  72 SE9       30.09F
*EAGLE PASS    CLEAR     61  50  67 SE10      30.07F
$$

TXZ173-191>194-202-209-217>225-228-140700-
CENTRAL AND SOUTH CENTRAL TEXAS

CITY           SKY/WX    TMP DP  RH WIND       PRES   REMARKS
GEORGETOWN     PTCLDY    61  52  72 S8        30.12F
6HR MIN TEMP:  61; 6HR MAX TEMP:  70;

AUSTIN/BERGSTM CLEAR     56  53  90 S8        30.14F
6HR MIN TEMP:  56; 6HR MAX TEMP:  70;

AUSTIN/MABRY   PTCLDY    59  54  83 VRB6      30.15F
6HR MIN TEMP:  59; 6HR MAX TEMP:  69;

*AUSTIN/EXEC   CLEAR     57  55  94 S8        30.14F
*LAGO VISTA    CLEAR     58  53  82 S7G18     30.14F
SAN MARCOS     CLEAR     54  50  87 S5        30.15F
6HR MIN TEMP:  54; 6HR MAX TEMP:  70;

NEW BRAUNFELS  CLEAR     54  50  86 S7        30.13F
6HR MIN TEMP:  54; 6HR MAX TEMP:  72;

RANDOLPH AFB   CLEAR     56  55  96 S8        30.13F
6HR MIN TEMP:  55; 6HR MAX TEMP:  69;

PT SAN ANTONIO CLEAR     54  50  87 SE8       30.11F
6HR MIN TEMP:  53; 6HR MAX TEMP:  70;

SAN ANTONIO    PTCLDY    58  52  80 S8        30.14F
6HR MIN TEMP:  57; 6HR MAX TEMP:  71;

STINSON FIELD  CLEAR     57  51  80 SE5       30.12F
6HR MIN TEMP:  56; 6HR MAX TEMP:  73;

*PLEASANTON    CLEAR     56  51  84 SE5       30.14F
6HR MIN TEMP:  55; 6HR MAX TEMP:  73;

*LA GRANGE     MOCLDY    56  56  97 S3        30.15F
*GIDDINGS      PTCLDY    58  55  92 S6        30.20S
*GONZALES      PTCLDY    58  58 100 SE9       30.15F
$$

TXZ163>164-176>182-195>201-210>213-226-227-235-140700-
SOUTHEAST TEXAS

CITY           SKY/WX    TMP DP  RH WIND       PRES   REMARKS
COLLEGE STN    CLOUDY    59  55  87 S13       30.17F
6HR MIN TEMP:  59; 6HR MAX TEMP:  64;

*BRYAN         CLOUDY    58  55  89 SE10      30.19F
*CALDWELL      CLOUDY    57  57 100 SE10      30.19F
*CROCKETT      CLOUDY    57  46  67 S10G16    30.21F
*BRENHAM       CLOUDY    60  58  92 SE12      30.18F
6HR MIN TEMP:  60; 6HR MAX TEMP:  69;

HUNTSVILLE     CLOUDY    57  51  80 SE8       30.18F
6HR MIN TEMP:  57; 6HR MAX TEMP:  66;

CONROE         CLOUDY    57  50  77 SE8       30.19F
6HR MIN TEMP:  57; 6HR MAX TEMP:  61;

HOUSTON BUSH   CLOUDY    58  54  86 SE10      30.19F
6HR MIN TEMP:  57; 6HR MAX TEMP:  60;

HOUSTON HOBBY  PTCLDY    58  55  90 E5        30.19F
6HR MIN TEMP:  58; 6HR MAX TEMP:  61;

*HOUSTON SW AP CLEAR     54  53  97 CALM      30.20F
PEARLAND       PTCLDY    59  55  87 SE6       30.21F
6HR MIN TEMP:  59; 6HR MAX TEMP:  63;

HOUSTON HOOKS  CLOUDY    59  54  83 SE7       30.19F
6HR MIN TEMP:  58; 6HR MAX TEMP:  62;

ELLINGTON FLD  NOT AVBL
SUGAR LAND     CLOUDY    57  55  93 E6        30.18F
6HR MIN TEMP:  57; 6HR MAX TEMP:  62;

*HOUSTON EXEC  CLOUDY    57  55  94 SE12      30.19F
*CLEVELAND MUN CLOUDY    56  53  88 SE3       30.22F
*WHARTON       CLEAR     55  53  95 E5        30.19F FOG
*COLUMBUS      CLOUDY    58  57  97 SE8       30.17F FOG
*EAGLE LAKE    CLOUDY    56  56  98 SE6       30.17F
$$

TXZ214>216-236>238-140700-
THE UPPER TEXAS COAST

CITY           SKY/WX    TMP DP  RH WIND       PRES   REMARKS
*ORANGE        MOCLDY    55  48  77 SE6       30.25F
PORT ARTHUR    CLOUDY    57  51  80 E10       30.22F
6HR MIN TEMP:  57; 6HR MAX TEMP:  58;

GALVESTON      PTCLDY    59  58  96 SE13      30.21F
6HR MIN TEMP:  59; 6HR MAX TEMP:  60;

ANGLETON       CLEAR     60  59  96 SE8       30.18F
6HR MIN TEMP:  60; 6HR MAX TEMP:  64;

*BAY CITY      FOG       55  55 100 E3        30.18F VSB 1/4
PALACIOS       PTCLDY    61  58  90 SE7       30.17F
6HR MIN TEMP:  60; 6HR MAX TEMP:  63;

$$

TXZ229>234-239>247-140700-
TEXAS COASTAL BEND AND RIO GRANDE PLAINS

CITY           SKY/WX    TMP DP  RH WIND       PRES   REMARKS
VICTORIA       FOG       53  53 100 SE5       30.16F VSB 1/4
6HR MIN TEMP:  53; 6HR MAX TEMP:  66;

*BEEVILLE      CLEAR     55  55 100 E3        30.15F
6HR MIN TEMP:  55; 6HR MAX TEMP:  70;

ROCKPORT       CLEAR     65  59  81 S7        30.15F
6HR MIN TEMP:  64; 6HR MAX TEMP:  68;

*PORT ARANSAS  CLEAR     63  60  91 S10       30.15F
*PORT LAVACA   MOCLDY    59  58  97 SE6       30.17F
*INGLESIDE     CLEAR     56  54  92 S7        30.15F
CORPUS CHRISTI PTCLDY    56  51  84 S8        30.15F
6HR MIN TEMP:  56; 6HR MAX TEMP:  70;

CORPUS NAS     CLEAR     63  60  90 S10       30.15F
6HR MIN TEMP:  63; 6HR MAX TEMP:  67;

*ROBSTOWN      CLEAR     59  55  87 S7        30.16F
ALICE          CLEAR     52  51  97 S7        30.14F
6HR MIN TEMP:  52; 6HR MAX TEMP:  70;

KINGSVILLE NAS CLEAR     57  56  96 SE6       30.14F
6HR MIN TEMP:  55; 6HR MAX TEMP:  68; 6HR PCP: TRACE;

COTULLA        CLEAR     61  52  72 SE12      30.12F
6HR MIN TEMP:  61; 6HR MAX TEMP:  78;

*FAITH RANCH   PTCLDY    63  54  72 SE14G22   30.07F
LAREDO         CLEAR     62  55  77 SE15      30.11F
6HR MIN TEMP:  62; 6HR MAX TEMP:  77;

$$

TXZ248>255-140700-
DEEP SOUTH TEXAS

CITY           SKY/WX    TMP DP  RH WIND       PRES   REMARKS
BROWNSVILLE    PTCLDY    64  60  87 SE10      30.15F
6HR MIN TEMP:  62; 6HR MAX TEMP:  69;

PORT ISABEL    CLEAR     64  60  87 SE10      30.15F
6HR MIN TEMP:  64; 6HR MAX TEMP:  69;

*SOUTH PADRE     N/A     66  63  88 SE10      30.15F
HARLINGEN      PTCLDY    61  57  87 SE9       30.14F
6HR MIN TEMP:  61; 6HR MAX TEMP:  71;

*HEBBRONVILLE  NOT AVBL
MCALLEN        CLOUDY    64  58  80 SE10      30.14F
6HR MIN TEMP:  64; 6HR MAX TEMP:  76;

*WESLACO       PTCLDY    63  58  83 SE8       30.14F
FALFURRIAS     CLEAR     57  54  89 E5        30.14F
6HR MIN TEMP:  57; 6HR MAX TEMP:  71;

EDINBURG       CLEAR     58  54  86 SE5       30.14F
6HR MIN TEMP:  57; 6HR MAX TEMP:  75;

*ZAPATA        CLEAR     63  55  73 SE8       30.12F
$$

TXZ213>215-236>238-242>244-246-247-251-254-255-140700-
CMAN STATIONS

STAC1F1C2F2C3F3C4F4C5F5C6F6C7M1C8M2C9!


USA.gov is the U.S. government's official web portal to all federal, state and local government web resources and services.